#timestamp,LO_Frequency,Hit,StdDev 
1511535615.0,286046999.0,N
1511535615.9,286046999.0,N
1511535635.8,286047000.2,N
1511535655.6,286047001.6,N
1511535675.4,286047002.3,N
1511535695.3,286047002.8,N
1511535715.1,286047001.7,N
1511535716.0,286047001.7,N
1511535735.8,286047004.3,N
1511535755.7,286047002.3,N
1511535775.5,286047004.4,N
1511535795.3,286047003.4,N
1511535815.1,286047001.8,N
1511535835.9,286046999.7,N
1511535855.7,286047000.2,N
1511535875.5,286046998.7,N
1511535895.4,286047000.0,N
1511535915.2,286047002.7,N
1511535935.0,286047001.5,N
1511535935.9,286047001.5,N
1511535955.8,286047001.9,N
1511535975.6,286046999.5,N
1511535995.4,286046996.9,N
1511536015.3,286046997.8,N
1511536035.1,286046996.2,N
1511536036.0,286046996.2,N
1511536055.8,286046995.2,N
1511536075.7,286046996.3,N
1511536095.5,286046997.6,N
1511536115.3,286046994.8,N
1511536135.1,286046994.4,N
1511536155.9,286046994.2,N
1511536175.7,286046995.3,N
1511536195.5,286046995.4,N
1511536215.4,286046998.0,N
1511536235.2,286046999.6,N
1511536255.0,286046997.8,N
1511536255.9,286046997.8,N
1511536275.8,286046999.6,N
1511536295.6,286046998.7,N
1511536315.4,286047002.7,N
1511536335.3,286046998.8,N
1511536355.1,286046999.2,N
1511536356.0,286046999.2,N
1511536375.8,286046996.7,N
1511536395.7,286046997.1,N
1511536415.5,286046998.1,N
1511536435.3,286046998.2,N
1511536455.2,286046999.8,N
1511536475.9,286046996.5,N
1511536495.7,286046996.2,N
1511536515.6,286046992.8,Y
1511536535.4,286046996.9,P
1511536555.2,286046997.5,P
1511536575.1,286046998.9,P
1511536576.0,286046998.9,N
1511536595.8,286046995.0,Y
1511536615.6,286047000.6,P
1511536635.5,286047000.8,N
1511536655.3,286047000.3,N
1511536675.1,286047000.6,N
1511536695.9,286046999.4,N
1511536715.7,286047000.9,N
1511536735.5,286046998.7,N
1511536755.4,286046996.5,Y
1511536775.2,286046998.9,P
1511536795.0,286047002.7,P
1511536795.9,286047002.7,N
1511536815.8,286047003.5,N
1511536835.6,286047004.0,N
1511536855.4,286047000.4,N
1511536875.2,286046999.4,N
1511536895.1,286047000.5,N
1511536896.0,286047000.5,N
1511536915.8,286046998.7,N
1511536935.6,286046996.5,N
1511536955.5,286046999.3,N
1511536975.3,286046998.5,N
1511536995.1,286047000.6,N
1511537015.9,286047001.5,N
1511537035.7,286047002.2,N
1511537055.5,286046998.1,N
1511537075.4,286046999.8,N
1511537095.2,286047000.7,N
1511537115.0,286046998.1,N
1511537115.9,286046998.1,N
1511537135.8,286047003.9,N
1511537155.6,286047004.5,N
1511537175.4,286047005.1,N
1511537195.3,286047009.6,Y
1511537215.1,286047006.7,P
1511537216.0,286047006.7,N
1511537235.8,286047005.6,N
1511537255.6,286047004.9,N
1511537275.5,286047006.3,N
1511537295.3,286047008.7,Y
1511537315.1,286047000.1,P
1511537335.9,286047000.8,N
1511537355.7,286047000.8,N
1511537375.5,286047004.3,N
1511537395.4,286047005.6,N
1511537415.2,286047002.0,N
1511537435.0,286046996.9,N
1511537435.9,286046996.9,N
1511537455.8,286046993.7,N
1511537475.6,286046994.8,N
1511537495.4,286046992.6,N
1511537515.3,286046993.1,N
1511537535.1,286046989.0,N
1511537536.0,286046989.0,N
1511537555.8,286046989.2,N
1511537575.7,286046989.3,N
1511537595.5,286046988.2,N
1511537615.3,286046988.0,N
1511537635.2,286046989.9,N
1511537655.9,286046990.0,N
1511537675.7,286046989.3,N
1511537695.5,286046989.3,N
1511537715.4,286046991.5,N
1511537735.2,286046988.7,N
1511537755.0,286046989.9,N
1511537755.9,286046989.9,N
1511537775.8,286046988.7,N
1511537795.6,286046992.9,N
1511537815.4,286046996.4,N
1511537835.3,286046997.7,N
1511537855.1,286046993.6,N
1511537856.0,286046993.6,N
1511537875.8,286046992.2,N
1511537895.7,286046994.7,N
1511537915.5,286046986.9,Y
1511537935.3,286046993.4,P
1511537955.2,286046994.2,P
1511537975.9,286046997.1,P
1511537995.7,286046995.0,N
1511538015.6,286046993.5,Y
1511538035.4,286046995.3,P
1511538055.2,286046996.7,P
1511538075.1,286046997.9,N
1511538076.0,286046997.9,N
1511538095.8,286046993.6,Y
1511538115.6,286047000.6,P
1511538135.5,286046999.1,N
1511538155.3,286046995.6,N
1511538175.1,286046998.1,N
1511538195.9,286047000.9,N
1511538215.7,286046995.3,N
1511538235.5,286046996.2,N
1511538255.3,286046995.6,N
1511538275.2,286046999.3,N
1511538295.0,286047001.2,N
1511538295.9,286047001.2,N
1511538315.7,286046999.5,N
1511538335.6,286046998.6,N
1511538355.4,286046999.1,N
1511538375.2,286047000.6,N
1511538395.1,286046998.3,N
1511538396.0,286046998.3,N
1511538415.8,286046999.9,N
1511538435.6,286047001.4,N
1511538455.5,286047001.5,N
1511538475.3,286047003.4,N
1511538495.1,286047002.6,N
1511538515.9,286047001.4,N
1511538535.7,286047004.4,N
1511538555.5,286047004.4,N
1511538575.4,286047008.8,Y
1511538595.2,286047011.9,P
1511538615.0,286047012.0,N
1511538615.9,286047012.0,N
1511538635.8,286047010.1,N
1511538655.6,286047009.2,N
1511538675.4,286047009.1,N
1511538695.2,286047004.5,N
1511538715.1,286047005.1,N
1511538716.0,286047005.1,N
1511538735.8,286047002.2,N
1511538755.6,286047002.2,N
1511538775.5,286047004.3,N
1511538795.3,286047002.3,N
1511538815.1,286047002.2,N
1511538835.9,286047002.0,N
1511538855.7,286047004.2,N
1511538875.5,286047005.5,N
1511538895.4,286047004.7,N
1511538915.2,286047007.0,N
1511538935.0,286047008.9,N
1511538935.9,286047008.9,N
1511538955.8,286047006.1,N
1511538975.6,286047006.4,N
1511538995.4,286047005.5,N
1511539015.2,286047004.7,N
1511539035.1,286047005.2,N
1511539036.0,286047005.2,N
1511539055.8,286047005.3,N
1511539075.6,286047007.3,N
1511539095.5,286047002.1,N
1511539115.3,286047002.1,N
1511539135.1,286047001.4,N
1511539155.9,286047005.2,N
1511539175.7,286047004.7,N
1511539195.5,286047005.2,N
